Location: ?ernice
(48.8383°N, 14.3803°E)
Time: 05:21:19
(UTC+00:00)

Cosmos 1980 Rocket - Pass Details

Date: 23 May 2024
Orbit: 827 x 851 km, 71.0° (Epoch: 15 June)

Event Time Altitude Azimuth Distance (km) Brightness Sun altitude
Rises 01:05:49 0° 318° (NW) 3,427 5.6 -15.0°
Reaches altitude 10° 01:09:12 10° 298° (WNW) 2,485 4.6 -14.7°
Maximum altitude 01:12:32 16° 262° (W) 2,074 3.9 -14.4°
Enters shadow 01:13:51 15° 246° (WSW) 2,140 3.8 -14.3°
